Regional Weather Roundup
Issued by NWS

Home | Current Version | Previous Version | Text Only | Print | Product List | Glossary Off
Versions: 1 2 3 4 5 6 7 8 9 10 11 12 13 14 15 16 17 18 19 20 21 22 23 24 25 26 27 28 29 30 31 32 33 34 35 36 37 38 39 40 41 42 43 44 45 46 47 48 49 50

000
ASUS43 KMKX 130500
RWRWI

WISCONSIN REGIONAL WEATHER ROUNDUP
NATIONAL WEATHER SERVICE MILWAUKEE/SULLIVAN WI
1200 AM CDT SUN JUL 13 2014

NOTE: "FAIR" INDICATES FEW OR NO CLOUDS BELOW 12,000 FEET WITH NO
SIGNIFICANT WEATHER AND/OR OBSTRUCTIONS TO VISIBILITY.

WIZ001-002-006>008-014>016-023>028-130600-
NORTHWEST WISCONSIN

CITY           SKY/WX    TMP DP  RH WIND       PRES   REMARKS
SUPERIOR ARPT  PTCLDY    63  60  90 SW8       29.84S
ASHLAND        CLEAR     64  61  90 SW8       29.85S
HAYWARD        CLEAR     62  60  93 S5        29.89S
SIREN          CLEAR     64  61  90 SW7       29.90S
RICE LAKE      PTCLDY    64  62  93 SW3       29.92F
LADYSMITH      CLOUDY    66  64  95 SW7       29.92F
EAU CLAIRE     NOT AVBL
MENOMONIE        N/A     66  65  95 CALM      29.92F
NEW RICHMOND   CLEAR     65  64  97 SW5       29.93F
OSCEOLA        CLEAR     64  64  98 SW6       29.94F
$$

WIZ003>005-009-010-017-018-130600-
NORTH CENTRAL WISCONSIN

CITY           SKY/WX    TMP DP  RH WIND       PRES   REMARKS
WOODRUFF       MOCLDY    63  61  92 W7        29.89S
RHINELANDER    MOCLDY    61  60  97 W12       29.90S
EAGLE RIVER    CLOUDY    62  62 100 W6        29.88S
LAND O LAKES   CLOUDY    65  62  91 W5        29.87F
PHILLIPS       CLOUDY    63  62  97 SW6       29.90S
TOMAHAWK       PTCLDY    58  57  96 W6        29.91S
MEDFORD        PTCLDY    61  60  97 W9        29.92S
MERRILL        CLEAR     60  60 100 W6        29.90R
$$

WIZ029-030-035-036-043>047-130600-
CENTRAL WISCONSIN

CITY           SKY/WX    TMP DP  RH WIND       PRES   REMARKS
WAUSAU         CLEAR     63  61  93 NW10      29.88R
MOSINEE        CLEAR     59  59 100 SW6       29.89F
MARSHFIELD     CLEAR     62  61  96 NW14      29.91R
STEVENS POINT  PTCLDY    63  62  97 SW3       29.89S
WAUPACA        CLEAR     66  64  91 W5        29.87S
WAUTOMA        NOT AVBL
WISC RAPIDS    FOG       64  63  96 SW8       29.91S VSB 3/4
CAMP DOUGLAS   NOT AVBL
$$

WIZ011>013-019>022-031-037>040-048>050-130600-
NORTHEAST WISCONSIN

CITY           SKY/WX    TMP DP  RH WIND       PRES   REMARKS
ANTIGO         CLEAR     58  58 100 W6        29.88S
STURGEON BAY   MOCLDY    64  61  88 W5        29.82F
GREEN BAY      PTCLDY    65  62  90 CALM      29.84S
MANITOWOC      NOT AVBL
APPLETON       PTCLDY    63  61  94 W5        29.86S
CLINTONVILLE   PTCLDY    63  61  94 CALM      29.85F
OSHKOSH        MOCLDY    66  65  96 SW5       29.86R
$$

WIZ032>034-041-042-053>061-130600-
SOUTHWEST WISCONSIN

CITY           SKY/WX    TMP DP  RH WIND       PRES   REMARKS
LA CROSSE      CLEAR     65  63  93 S6        29.92F
SPARTA         PTCLDY    62  62  97 W3        29.94S
VIROQUA        CLOUDY    64  64 100 NW8       29.95S
BOSCOBEL       CLOUDY    66  63  90 CALM      29.94R
PRAIRIE DU CHI PTCLDY    65  63  91 NW5       29.94R
PLATTEVILLE    FAIR      65  64  95 NW9       29.94R
$$

WIZ056-057-062-063-064-067-068-130600-
SOUTH CENTRAL WISCONSIN

CITY           SKY/WX    TMP DP  RH WIND       PRES   REMARKS
BARABOO/DELLS  MOCLDY    63  62  95 W5        29.92S
LONE ROCK      NOT AVBL
WATERTOWN      CLOUDY    66  65  97 CALM      29.86F
MADISON        CLOUDY    67  64  90 NW6       29.91R
MIDDLETON      CLOUDY    68  68 100 N8        29.92R
MONROE         CLOUDY    68  66  94 N5        29.90S
JANESVILLE     CLOUDY    70  66  88 W6        29.88F
$$

WIZ051-052-058>065-066-070>072-130600-
SOUTHEAST WISCONSIN

CITY           SKY/WX    TMP DP  RH WIND       PRES   REMARKS
MILWAUKEE      CLOUDY    70  66  87 N12G18    29.87S
WAUKESHA       CLOUDY    64  63  94 NE8       29.89R
MILWAUKEE/TIMM CLOUDY    66  61  82 N10G18    29.88R
RACINE         RAIN      70  68  93 W9        29.88R FOG
BURLINGTON     RAIN      67  66  97 W9        29.89R
KENOSHA        LGT RAIN  70  68  93 W13G20    29.88R
FOND DU LAC    MOCLDY    66  64  93 W6        29.87R
SHEBOYGAN      CLOUDY    67  64  90 NW8       29.84F
WEST BEND      CLOUDY    64  61  88 N3        29.86F
JUNEAU         MOCLDY    65  49  56 CALM      29.88F
$$

LSZ147-162-130600-
LAKE SUPERIOR

STATION/POSITION TIME  TEMP    WIND        PRES    WAVE
                       AIR SEA DIR/SP/G            HT/PER
                 (UTC) (F)     (DEG/KT/KT) (MB)    (FT/S)
W MID LAKE BUOY  0350   46 38  210/ 10/ 12 1009.0F   0
PORT WING        0400   67     200/  6/  9 1010.2F
SAXON HARBOR     0400          180/  4/  6 1010.5
$$

LMZ867-665-643>646-130600-
LAKE MICHIGAN

STATION/POSITION TIME  TEMP    WIND        PRES    WAVE
                       AIR SEA DIR/SP/G            HT/PER
                 (UTC) (F)     (DEG/KT/KT) (MB)    (FT/S)
N MID LAKE BUOY  0350   58 58  170/  8/ 12 1008.4F   1/ 4
NORTHPORT PIER   0400   68     290/  7/ 11 1009.5R
SISTER BAY       0410   66     320/ 14/ 16   N/A
ALGOMA LAKESHORE 0305             CALM       N/A
KEWAUNEE LAKESHO 0400   56     180/  9/ 10 1010.3F
SHEBOYGAN LAKESH 0400   68      10/  7/  8 1011.0F
PORT WASHINGTON  0440   67      CALM  /  5 1011.5S
MILWAUKEE LAKESH 0400   69     270/  6/  7   N/A
S MID LAKE BUOY  0350   66 60  180/ 17/ 21 1008.6F   2/ 4
KENOSHA   LAKESH 0400   71     300/ 12/ 25   N/A
$$

TC  - TEMPERATURE IN CELSIUS
VSB - VISIBILITY IN STATUTE MILES
WCI - WIND CHILL INDEX
HX  - HEAT INDEX



USA.gov is the U.S. government's official web portal to all federal, state and local government web resources and services.